This demonstration page uses our WeatherBlox Daily Observations layout. Learn more.

41.55636, -103.73856

Hourly Observations for July 23, 2019

Temp ( °F °C ) Dew Point ( °F °C ) Humidity (%) Winds ( mph kmh ) Pressure ( in mb ) Visibility ( mi km ) Precip ( " mm )
12:53 am 00:53 Mostly Cloudy 66 18.9 58 14.4 75 75 ESE 10 17 30.18 1022 10 16.09344 0 0
1:53 am 01:53 Clear 63 17.2 58 14.4 84 84 ESE 10 17 30.18 1022 10 16.09344 0 0
2:53 am 02:53 Clear 63 17.2 57 13.9 81 81 ESE 10 17 30.15 1021 10 16.09344 0 0
3:53 am 03:53 Clear 61 16.1 57 13.9 87 87 ESE 10 17 30.15 1021 10 16.09344 0 0
4:53 am 04:53 Clear 60 15.6 56 13.3 86 86 ESE 12 19 30.18 1022 10 16.09344 0 0
5:53 am 05:53 Sunny 59 15 56 13.3 90 90 ESE 13 20 30.18 1022 10 16.09344 0 0
6:53 am 06:53 Sunny 61 16.1 57 13.9 87 87 ESE 13 20 30.18 1022 10 16.09344 0 0
7:53 am 07:53 Sunny 65 18.3 57 13.9 76 76 ESE 16 26 30.15 1021 10 16.09344 0 0
8:53 am 08:53 Sunny 66 18.9 58 14.4 75 75 ESE 9 15 30.18 1022 10 16.09344 0 0
9:53 am 09:53 Sunny 74 23.3 59 15 60 60 ESE 8 13 30.15 1021 10 16.09344 0 0
10:53 am 10:53 Sunny 77 25 60 15.6 56 56 SE 13 20 30.12 1020 10 16.09344 0 0
11:53 am 11:53 Sunny 80 26.7 61 16.1 52 52 ESE 12 19 30.09 1019 10 16.09344 0 0
12:53 pm 12:53 Sunny 85 29.4 62 16.7 46 46 SSE 12 19 30.06 1018 10 16.09344 0 0
1:53 pm 13:53 Sunny 88 31.1 61 16.1 40 40 SE 10 17 30.06 1018 10 16.09344 0 0
2:53 pm 14:53 Sunny 91 32.8 61 16.1 37 37 SSE 15 24 30.03 1017 10 16.09344 0 0
3:53 pm 15:53 Sunny 92 33.3 59 15 33 33 SSE 10 17 30 1016 10 16.09344 0 0
4:53 pm 16:53 Sunny 92 33.3 59 15 33 33 ESE 13 20 29.97 1015 10 16.09344 0 0
5:53 pm 17:53 Sunny 88 31.1 64 17.8 45 45 E 13 20 29.97 1015 10 16.09344 0 0
6:53 pm 18:53 Sunny 86 30 64 17.8 48 48 ESE 14 22 30 1016 10 16.09344 0 0
7:53 pm 19:53 Sunny 80 26.7 62 16.7 54 54 ESE 13 20 30 1016 10 16.09344 0 0
8:53 pm 20:53 Clear 76 24.4 62 16.7 62 62 ESE 13 20 30.03 1017 10 16.09344 0 0
9:53 pm 21:53 Clear 73 22.8 61 16.1 66 66 ESE 9 15 30.03 1017 10 16.09344 0 0
10:53 pm 22:53 Clear 71 21.7 61 16.1 71 71 ESE 14 22 30.03 1017 10 16.09344 0 0
11:53 pm 23:53 Clear 68 20 61 16.1 78 78 ESE 14 22 30.03 1017 10 16.09344 0 0

Powered by AerisWeather